Location: Kolin
(50.0330°N, 15.2000°E)
Time: 02:48:57
(UTC+01:00)

ISS - Pass Details

Date: 05 October 2020
Orbit: 417 x 420 km, 51.6° (Epoch: 25 October)

Event Time Altitude Azimuth Distance (km) Brightness Sun altitude
Rises 19:32:38 0° 286° (WNW) 2,369 2.0 -11.2°
Reaches altitude 10° 19:34:54 10° 275° (W) 1,503 0.6 -11.5°
Maximum altitude 19:37:51 28° 214° (SW) 811 -2.0 -12.0°
Drops below altitude 10° 19:40:48 10° 153° (SSE) 1,497 -1.3 -12.5°
Enters shadow 19:41:03 - 151° (SSE) 1,586 -1.2 -12.5°
